Flag for U.S.A. Weather past 2 weeks in Portland, Oregon, U.S.A.

Now
50 °F

Mostly cloudy.


Feels Like: 48 °F
Forecast: 44 / 56 °F
Wind: 5 mph from Southwest

Location: Portland International Airport


UV Index: 3 (Moderate)

Visibility: 10 mi


Pressure: 29.92 "Hg

Humidity: 77%

Dew point: 43 °F

Location of PortlandLocation

Historic Weather in Portland

°F

Portland temperature yesterday

Maximum temperature yesterday: 54 °F (at 12:53 PM)
Minimum temperature yesterday: 46 °F (at 2:53 AM)
Average temperature yesterday: 51 °F

Past Weeks' High & Low Weather Summary

 TemperatureHumidityPressure
High72 °F (Apr 14, 3:53 PM)97% (Apr 18, 4:53 AM)30.30 "Hg (Apr 18, 4:53 AM)
Low40 °F (Apr 13, 6:53 AM)21% (Apr 13, 3:53 PM)29.72 "Hg (Apr 24, 3:53 AM)
Average53 °F69%30.06 "Hg
* Reported Apr 9 7:53 PM — Apr 24 7:53 PM, Portland, Weather by CustomWeather, © 2014

Note: Actual official high and low records may vary slightly from our data, if they occured in-between our weather recording intervals... More about our weather records

Advertising

Historic Weather Conditions — Data for Previous 24 hours

 ConditionsComfort  
Time TempWeatherWind HumidityBarometerVisibility
7:53 PM
Apr 24
50 °FCloudy.No wind71%29.91 "Hg10 mi
6:53 PM54 °FBroken clouds.10 mph53%29.91 "Hg10 mi
5:53 PM57 °FBroken clouds.12 mph51%29.92 "Hg10 mi
4:53 PM57 °FBroken clouds.9 mph51%29.91 "Hg10 mi
3:53 PM57 °FBroken clouds.12 mph53%29.91 "Hg10 mi
2:53 PM55 °FPartly sunny.13 mph67%29.92 "Hg10 mi
1:53 PM55 °FLight rain. Partly sunny.23 mph67%29.92 "Hg9 mi
12:53 PM56 °FPartly sunny.9 mph70%29.90 "Hg10 mi
11:53 AM55 °FScattered clouds.8 mph74%29.90 "Hg10 mi
11:00 AM50 °FLight rain. More clouds than sun.14 mph80%29.89 "Hg6 mi
9:53 AM56 °FScattered clouds.12 mph67%29.85 "Hg10 mi
8:53 AM54 °FPartly sunny.9 mph83%29.81 "Hg10 mi
7:53 AM53 °FPartly sunny.8 mph89%29.79 "Hg10 mi
6:53 AM52 °FLight rain. Partly cloudy.7 mph89%29.75 "Hg10 mi
5:53 AM53 °FRain. Fog.16 mph86%29.73 "Hg6 mi
4:53 AM53 °FLight rain. Mostly cloudy.14 mph86%29.73 "Hg10 mi
3:53 AM52 °FMostly cloudy.13 mph89%29.72 "Hg10 mi
2:53 AM53 °FLight rain. Overcast.15 mph86%29.74 "Hg10 mi
2:04 AM54 °FLight rain. Overcast.26 mph83%29.74 "Hg10 mi
1:53 AM54 °FLight rain. Mostly cloudy.18 mph83%29.75 "Hg10 mi
12:53 AM54 °FMostly cloudy.10 mph83%29.75 "Hg10 mi
11:53 PM
Apr 23
54 °FMostly cloudy.12 mph86%29.76 "Hg10 mi
10:53 PM54 °FMostly cloudy.14 mph90%29.76 "Hg10 mi
9:53 PM54 °FLight rain. Mostly cloudy.15 mph90%29.77 "Hg10 mi
Weather by CustomWeather, © 2014

See weather overview